User: anonymous   Login
Location: Unspecified
(0.0000°N, 0.0000°E)
Time: 07:50:04
(UTC+00:00)
Language:

Kiku 2 - Orbit

View from above orbital plane
View from above orbital plane
View from above satellite
View from above satellite

Ground track
Ground track

The orbit data is extracted from the following two-line orbital elements,

1  9852U 77014A   18112.76954073 +.00000084 +00000-0 +00000-0 0  9999
2  9852 012.0427 318.0324 0003275 339.1565 216.6170 01.00011184097445
Epoch (UTC): 22 April 2018 18:28:08
Eccentricity: 0.0003275
inclination: 12.0427°
perigee height: 35845 km
apogee height: 35873 km
right ascension of ascending node: 318.0324°
argument of perigee: 339.1565°
revolutions per day: 1.00011184
mean anomaly at epoch: 216.6170°
orbit number at epoch: 9744

The dashed part of the orbit path shows where the satellite is in the earth's shadow,  

DLR